• în România
  • Lista ţărilor
  • Pe 7 zile
  • Temperatura apei
  • Hartă satelitară
  • Meteo pe hartă
  • Widget-uri
  • user-avatar
    Intrare

    Meteo pe oră la Oran

    Astăzi, 26 Septembrie, Marţi

    Timp Temperatura Precipitaţii Vânt Presiune Umiditate
    00:00 +26°C° 0 mm 2 m/s 753 mmHg 56%
    01:00 +25°C° 0 mm 2 m/s 753 mmHg 56%
    02:00 +25°C° 0 mm 2 m/s 752 mmHg 56%
    03:00 +24°C° 0 mm 2 m/s 752 mmHg 56%
    04:00 +24°C° 0 mm 2 m/s 752 mmHg 53%
    05:00 +24°C° 0 mm 2 m/s 752 mmHg 50%
    06:00 +24°C° 0 mm 2 m/s 752 mmHg 48%
    07:00 +26°C° 0 mm 2 m/s 753 mmHg 41%
    08:00 +28°C° 0 mm 2 m/s 753 mmHg 35%
    09:00 +30°C° 0 mm 2 m/s 753 mmHg 28%
    10:00 +30°C° 0 mm 2 m/s 753 mmHg 29%
    11:00 +31°C° 0 mm 3 m/s 753 mmHg 29%
    12:00 +33°C° 0 mm 3 m/s 753 mmHg 29%
    13:00 +33°C° 0 mm 3 m/s 753 mmHg 30%
    14:00 +33°C° 0 mm 3 m/s 752 mmHg 31%
    15:00 +33°C° 0 mm 3 m/s 752 mmHg 31%
    16:00 +31°C° 0 mm 3 m/s 752 mmHg 35%
    17:00 +30°C° 0 mm 3 m/s 752 mmHg 39%
    18:00 +29°C° 0 mm 3 m/s 753 mmHg 43%
    19:00 +28°C° 0 mm 2 m/s 753 mmHg 47%
    20:00 +28°C° 0 mm 2 m/s 753 mmHg 51%
    21:00 +27°C° 0 mm 2 m/s 754 mmHg 54%
    22:00 +26°C° 0 mm 2 m/s 754 mmHg 56%
    23:00 +26°C° 0 mm 2 m/s 754 mmHg 59%

    Mâine, 27 Septembrie, Miercuri

    Timp Temperatura Precipitaţii Vânt Presiune Umiditate
    00:00 +26°C° 0 mm 2 m/s 754 mmHg 61%
    01:00 +25°C° 0 mm 2 m/s 754 mmHg 64%
    02:00 +25°C° 0 mm 2 m/s 754 mmHg 67%
    03:00 +24°C° 0 mm 2 m/s 754 mmHg 69%
    04:00 +24°C° 0 mm 2 m/s 754 mmHg 71%
    05:00 +24°C° 0 mm 2 m/s 754 mmHg 73%
    06:00 +23°C° 0 mm 2 m/s 754 mmHg 74%
    07:00 +24°C° 0 mm 2 m/s 754 mmHg 68%
    08:00 +26°C° 0 mm 2 m/s 755 mmHg 61%
    09:00 +27°C° 0 mm 2 m/s 755 mmHg 55%
    10:00 +28°C° 0 mm 3 m/s 755 mmHg 50%
    11:00 +29°C° 0 mm 3 m/s 755 mmHg 46%
    12:00 +30°C° 0 mm 4 m/s 754 mmHg 41%
    13:00 +30°C° 0 mm 4 m/s 754 mmHg 42%
    14:00 +30°C° 0 mm 5 m/s 754 mmHg 43%
    15:00 +30°C° 0 mm 5 m/s 754 mmHg 44%
    16:00 +29°C° 0 mm 5 m/s 754 mmHg 49%
    17:00 +28°C° 0 mm 5 m/s 754 mmHg 54%
    18:00 +27°C° 0 mm 4 m/s 755 mmHg 60%
    19:00 +27°C° 0 mm 4 m/s 755 mmHg 60%
    20:00 +27°C° 0 mm 4 m/s 756 mmHg 60%
    21:00 +27°C° 0 mm 4 m/s 756 mmHg 60%
    22:00 +26°C° 0 mm 3 m/s 756 mmHg 60%
    23:00 +26°C° 0 mm 3 m/s 756 mmHg 60%

    Poimâine, 28 Septembrie, Joi

    Timp Temperatura Precipitaţii Vânt Presiune Umiditate
    00:00 +26°C° 0 mm 3 m/s 756 mmHg 60%
    01:00 +26°C° 0 mm 3 m/s 755 mmHg 60%
    02:00 +26°C° 0 mm 3 m/s 755 mmHg 60%
    03:00 +26°C° 0 mm 3 m/s 755 mmHg 60%
    04:00 +26°C° 0 mm 3 m/s 755 mmHg 60%
    05:00 +25°C° 0 mm 3 m/s 755 mmHg 61%
    06:00 +25°C° 0 mm 4 m/s 755 mmHg 61%
    07:00 +26°C° 0 mm 4 m/s 755 mmHg 57%
    08:00 +27°C° 0 mm 4 m/s 755 mmHg 52%
    09:00 +28°C° 0 mm 4 m/s 756 mmHg 47%
    10:00 +29°C° 0 mm 5 m/s 756 mmHg 43%
    11:00 +32°C° 0 mm 6 m/s 755 mmHg 38%
    12:00 +33°C° 0 mm 7 m/s 755 mmHg 34%
    13:00 +33°C° 0 mm 7 m/s 755 mmHg 33%
    14:00 +33°C° 0 mm 8 m/s 754 mmHg 33%
    15:00 +33°C° 0 mm 9 m/s 754 mmHg 32%
    16:00 +32°C° 0 mm 9 m/s 754 mmHg 35%
    17:00 +31°C° 0 mm 8 m/s 754 mmHg 38%
    18:00 +29°C° 0 mm 8 m/s 754 mmHg 41%
    19:00 +28°C° 0 mm 7 m/s 755 mmHg 44%
    20:00 +27°C° 0 mm 6 m/s 755 mmHg 47%
    21:00 +27°C° 0 mm 5 m/s 755 mmHg 50%
    22:00 +26°C° 0 mm 5 m/s 755 mmHg 53%
    23:00 +26°C° 0 mm 5 m/s 755 mmHg 57%

    29 Septembrie, Vineri

    Timp Temperatura Precipitaţii Vânt Presiune Umiditate
    00:00 +25°C° 0 mm 5 m/s 755 mmHg 60%
    01:00 +25°C° 0 mm 5 m/s 755 mmHg 63%
    02:00 +25°C° 0 mm 5 m/s 754 mmHg 66%
    03:00 +23°C° 0 mm 4 m/s 754 mmHg 69%
    04:00 +23°C° 0,1 mm 5 m/s 754 mmHg 69%
    05:00 +23°C° 0,1 mm 5 m/s 754 mmHg 70%
    06:00 +23°C° 0,1 mm 5 m/s 755 mmHg 70%
    07:00 +25°C° 0 mm 5 m/s 755 mmHg 65%
    08:00 +26°C° 0 mm 5 m/s 755 mmHg 61%
    09:00 +27°C° 0 mm 5 m/s 755 mmHg 56%
    10:00 +28°C° 0 mm 5 m/s 755 mmHg 52%
    11:00 +29°C° 0 mm 5 m/s 755 mmHg 48%
    12:00 +30°C° 0 mm 6 m/s 755 mmHg 45%
    13:00 +30°C° 0 mm 6 m/s 755 mmHg 45%
    14:00 +30°C° 0 mm 6 m/s 754 mmHg 46%
    15:00 +30°C° 0 mm 7 m/s 754 mmHg 47%
    16:00 +29°C° 0 mm 7 m/s 754 mmHg 51%
    17:00 +28°C° 0 mm 6 m/s 754 mmHg 55%
    18:00 +27°C° 0 mm 6 m/s 754 mmHg 59%
    19:00 +26°C° 0 mm 6 m/s 754 mmHg 62%
    20:00 +26°C° 0 mm 5 m/s 755 mmHg 64%
    21:00 +25°C° 0 mm 5 m/s 755 mmHg 67%
    22:00 +25°C° 0 mm 4 m/s 755 mmHg 69%
    23:00 +25°C° 0 mm 4 m/s 754 mmHg 71%

    30 Septembrie, Sâmbătă

    Timp Temperatura Precipitaţii Vânt Presiune Umiditate
    00:00 +23°C° 0 mm 4 m/s 754 mmHg 73%
    01:00 +23°C° 0 mm 4 m/s 754 mmHg 75%
    02:00 +24°C° 0 mm 3 m/s 754 mmHg 77%
    03:00 +22°C° 0 mm 3 m/s 754 mmHg 79%
    04:00 +22°C° 0 mm 3 m/s 754 mmHg 81%
    05:00 +22°C° 0 mm 3 m/s 754 mmHg 83%
    06:00 +21°C° 0 mm 3 m/s 754 mmHg 85%
    07:00 +22°C° 0 mm 3 m/s 754 mmHg 78%
    08:00 +24°C° 0 mm 3 m/s 754 mmHg 71%
    09:00 +25°C° 0 mm 3 m/s 754 mmHg 64%
    10:00 +26°C° 0 mm 3 m/s 754 mmHg 57%
    11:00 +27°C° 0 mm 3 m/s 754 mmHg 50%
    12:00 +29°C° 0 mm 3 m/s 753 mmHg 43%
    13:00 +29°C° 0 mm 4 m/s 753 mmHg 42%
    14:00 +29°C° 0 mm 4 m/s 752 mmHg 42%
    15:00 +29°C° 0 mm 5 m/s 752 mmHg 42%
    16:00 +28°C° 0 mm 5 m/s 752 mmHg 47%
    17:00 +27°C° 0 mm 4 m/s 752 mmHg 53%
    18:00 +26°C° 0 mm 4 m/s 752 mmHg 59%
    19:00 +26°C° 0 mm 4 m/s 752 mmHg 60%
    20:00 +25°C° 0 mm 3 m/s 752 mmHg 62%
    21:00 +25°C° 0 mm 3 m/s 752 mmHg 64%
    22:00 +25°C° 0 mm 3 m/s 752 mmHg 66%
    23:00 +25°C° 0 mm 3 m/s 752 mmHg 68%

    1 Octombrie, Duminică

    Timp Temperatura Precipitaţii Vânt Presiune Umiditate
    00:00 +24°C° 0 mm 3 m/s 751 mmHg 70%
    01:00 +24°C° 0 mm 3 m/s 751 mmHg 71%
    02:00 +24°C° 0 mm 3 m/s 751 mmHg 73%
    03:00 +22°C° 0 mm 3 m/s 751 mmHg 75%
    04:00 +22°C° 0 mm 3 m/s 751 mmHg 76%
    05:00 +22°C° 0 mm 3 m/s 751 mmHg 77%
    06:00 +22°C° 0 mm 3 m/s 751 mmHg 78%
    07:00 +24°C° 0 mm 3 m/s 751 mmHg 73%
    08:00 +24°C° 0 mm 3 m/s 751 mmHg 69%
    09:00 +25°C° 0 mm 2 m/s 751 mmHg 64%
    10:00 +26°C° 0 mm 3 m/s 751 mmHg 59%
    11:00 +27°C° 0 mm 3 m/s 751 mmHg 54%
    12:00 +28°C° 0 mm 3 m/s 751 mmHg 48%
    13:00 +28°C° 0 mm 4 m/s 750 mmHg 48%
    14:00 +28°C° 0 mm 5 m/s 750 mmHg 48%
    15:00 +28°C° 0 mm 5 m/s 750 mmHg 48%
    16:00 +27°C° 0 mm 5 m/s 750 mmHg 51%
    17:00 +27°C° 0 mm 5 m/s 750 mmHg 54%
    18:00 +26°C° 0 mm 5 m/s 750 mmHg 57%
    19:00 +26°C° 0 mm 5 m/s 751 mmHg 60%
    20:00 +25°C° 0 mm 5 m/s 751 mmHg 63%
    21:00 +25°C° 0 mm 4 m/s 751 mmHg 66%
    22:00 +25°C° 0 mm 4 m/s 751 mmHg 69%
    23:00 +23°C° 0 mm 4 m/s 751 mmHg 71%
    Arată mai mult